SCP
0 0 0 0 0 0 0 0 0 0 0 0 0 0 0 0 0 0 0 0 0 0
0 0 0 0 0 0 0 0 0 0 0 0 0 0 0 0 0 0 0 0 0 0
0 0 0 0 0 0 0 0 0 0 0 0 0 0 0 0 0 0 0 0 0 0
0 0 0 0 0 0 0 0 0 0 0 0 0 0 0 0 0 0 0 0 0 0
0 0 0 0 0 0 0 0 0 0 0 0 0 0 0 0 0 0 0 0 0 0
0 0 0 0 0 0 0 0 0 0 0 0 0 0 0 0 0 0 0 0 0 0
0 0 0 0 0 0 0 0 0 0 0 0 0 0 0 0 0 0 0 0 0 0
0 0 0 0 0 0 0 0 0 0 0 0 0 0 0 0 0 0 0 0 0 0
0 0 0 0 0 0 0 0 0 0 0 0 0 0 0 0 0 0 0 0 0 0
0 0 0 0 0 0 0 0 0 0 0 0 0 0 0 0 0 0 0 0 0 0
0 0 0 0 0 0 0 0 0 0 0 0 0 0 0 0 0 0 0 0 0 0
0 0 0 0 0 0 0 0 0 0 0 0 0 0 0 0 0 0 0 0 0 0
0 0 0 0 0 0 0 0 0 0 0 0 0 0 0 0 0 0 0 0 0 0
0 0 0 0 0 0 0 0 0 0 0 0 0 0 0 0 0 0 0 0 0 0
Wind_Speed_500mb
80 80 79 78 77 77 77 78 78 79 78 79 81 84 80 77 75 66 73 71 70 74
81 77 75 75 75 76 76 78 80 80 82 82 82 80 76 69 65 69 65 70 68 69
78 75 75 77 77 76 76 77 78 80 81 82 81 77 72 64 64 66 73 75 69 65
76 76 77 78 77 77 78 79 78 79 79 80 82 79 73 69 65 63 69 65 63 67
78 79 79 78 78 77 79 79 79 79 79 78 76 75 70 68 67 69 66 64 65 64
80 82 81 81 81 79 80 80 80 79 80 79 76 75 70 65 65 65 64 60 62 62
85 83 82 82 85 81 81 84 84 84 82 79 78 74 68 64 70 72 72 62 56 56
83 80 81 82 85 85 85 88 92 94 91 82 76 73 62 70 72 77 71 62 56 64
78 82 84 82 92 86 90 97 98 97 98 87 75 70 64 64 67 64 61 61 51 56
78 88 84 80 88 85 96 104 110 106 93 82 72 66 63 66 58 59 52 49 48 48
81 83 93 91 90 99 106 106 97 89 79 70 71 62 61 61 54 51 45 43 37 34
89 100 101 91 89 87 82 81 77 72 70 74 68 53 55 53 48 51 42 34 22 17
100 91 93 88 84 77 67 65 73 74 73 62 54 43 51 44 50 50 40 36 29 24
98 95 88 84 74 68 67 70 80 64 62 50 50 52 46 42 47 42 38 36 29 20
Wind_Direction_500mb
324 322 319 316 315 315 316 319 321 322 320 319 318 315 314 310 305 299 290 287 281 278
323 322 318 317 318 316 317 318 320 320 321 320 319 318 314 312 309 300 299 295 296 280
323 322 321 321 320 318 317 318 318 319 320 320 321 320 315 312 305 303 297 297 297 289
323 325 324 322 322 321 319 319 319 319 320 321 321 323 318 312 307 302 300 300 295 299
326 325 323 320 321 322 321 320 320 319 318 319 320 320 317 313 308 302 297 297 300 296
324 323 322 319 318 317 319 319 320 321 319 318 320 319 317 315 314 314 307 293 291 295
320 319 319 316 316 315 315 318 321 323 322 318 317 319 319 319 316 314 307 295 290 292
324 322 320 318 319 317 315 316 318 320 320 318 315 317 315 311 312 315 310 300 288 288
327 325 324 320 320 320 315 315 316 317 317 315 312 311 310 312 312 310 313 302 288 278
326 322 325 324 317 312 311 313 314 315 315 312 309 310 311 313 315 313 313 306 289 268
323 323 321 318 310 308 310 311 313 315 315 313 309 311 311 315 317 316 313 328 289 270
321 320 321 321 319 317 317 315 315 315 315 313 312 315 313 318 319 323 316 314 318 303
322 324 325 325 323 321 321 322 317 311 312 318 321 322 318 320 323 328 319 313 289 272
330 332 331 330 326 325 325 309 314 317 323 332 334 324 322 323 322 323 317 322 310 275
Wind_Speed_850mb
80 80 79 78 77 77 77 78 78 79 78 79 81 84 80 77 75 66 73 71 70 74
81 77 75 75 75 76 76 78 80 80 82 82 82 80 76 69 65 69 65 70 68 69
78 75 75 77 77 76 76 77 78 80 81 82 81 77 72 64 64 66 73 75 69 65
76 76 77 78 77 77 78 79 78 79 79 80 82 79 73 69 65 63 69 65 63 67
78 79 79 78 78 77 79 79 79 79 79 78 76 75 70 68 67 69 66 64 65 64
80 82 81 81 81 79 80 80 80 79 80 79 76 75 70 65 65 65 64 60 62 62
85 83 82 82 85 81 81 84 84 84 82 79 78 74 68 64 70 72 72 62 56 56
83 80 81 82 85 85 85 88 92 94 91 82 76 73 62 70 72 77 71 62 56 64
78 82 84 82 92 86 90 97 98 97 98 87 75 70 64 64 67 64 61 61 51 56
78 88 84 80 88 85 96 104 110 106 93 82 72 66 63 66 58 59 52 49 48 48
81 83 93 91 90 99 106 106 97 89 79 70 71 62 61 61 54 51 45 43 37 34
89 100 101 91 89 87 82 81 77 72 70 74 68 53 55 53 48 51 42 34 22 17
100 91 93 88 84 77 67 65 73 74 73 62 54 43 51 44 50 50 40 36 29 24
98 95 88 84 74 68 67 70 80 64 62 50 50 52 46 42 47 42 38 36 29 20
Wind_Direction_850mb
324 322 319 316 315 315 316 319 321 322 320 319 318 315 314 310 305 299 290 287 281 278
323 322 318 317 318 316 317 318 320 320 321 320 319 318 314 312 309 300 299 295 296 280
323 322 321 321 320 318 317 318 318 319 320 320 321 320 315 312 305 303 297 297 297 289
323 325 324 322 322 321 319 319 319 319 320 321 321 323 318 312 307 302 300 300 295 299
326 325 323 320 321 322 321 320 320 319 318 319 320 320 317 313 308 302 297 297 300 296
324 323 322 319 318 317 319 319 320 321 319 318 320 319 317 315 314 314 307 293 291 295
320 319 319 316 316 315 315 318 321 323 322 318 317 319 319 319 316 314 307 295 290 292
324 322 320 318 319 317 315 316 318 320 320 318 315 317 315 311 312 315 310 300 288 288
327 325 324 320 320 320 315 315 316 317 317 315 312 311 310 312 312 310 313 302 288 278
326 322 325 324 317 312 311 313 314 315 315 312 309 310 311 313 315 313 313 306 289 268
323 323 321 318 310 308 310 311 313 315 315 313 309 311 311 315 317 316 313 328 289 270
321 320 321 321 319 317 317 315 315 315 315 313 312 315 313 318 319 323 316 314 318 303
322 324 325 325 323 321 321 322 317 311 312 318 321 322 318 320 323 328 319 313 289 272
330 332 331 330 326 325 325 309 314 317 323 332 334 324 322 323 322 323 317 322 310 275